Other Public Products
Issued by NWS Charleston, SC

Current Version | Previous Version | Graphics & Text | Print | Product List | Glossary On
Versions: 1 2 3 4 5 6 7 8 9 10 11 12 13 14 15 16 17 18 19 20 21 22 23 24 25 26 27 28 29 30 31 32 33 34 35 36 37 38 39 40 41 42 43 44 45 46 47 48 49 50
258 FPUS82 KCHS 171927 OPUCHS TEST...KCHS/KSAV Gateway Observations...TEST National Weather Service Charleston SC 200 PM EST SUN DEC 17 2017 NOTE: "fair" indicates few or no clouds below 12,000 feet with no significant weather and/or obstructions to visibility. SCZ050-WAZ558-NCZ071-TXZ119-213-PAZ071-DCZ001-FLZ074-172-MI076- NYZ176-178-MAZ016-IL014-TNZ027-NJZ106-GAZ044-MD014-172000- ...Gateway Observations for Charleston International... CITY SKY/WX TMP DP RH WIND PRES REMARKS Chas Airport MOSUNNY 63 36 36 SW8 30.22F Seattle CLOUDY 47 43 86 S20G26 30.08F Charlotte PTSUNNY 53 30 41 SW8 30.20F Dallas DFW CLOUDY 50 45 83 S9 30.04F Dallas Love CLOUDY 50 45 83 S6 30.06F Philladelphia CLOUDY 43 27 53 CALM 30.22F Wash National CLOUDY 47 33 58 S5 30.20F Baltimore CLOUDY 48 34 58 E7 30.19F Miami PTSUNNY 76 67 73 SE14 30.17F Detroit CLOUDY 35 30 82 E6 30.11F WCI 30 Newark CLOUDY 37 24 59 NE5 30.24F WCI 33 Laguardia CLOUDY 36 23 59 NE6 30.24F WCI 31 J F K CLOUDY 36 24 62 CALM 30.25F Boston Logan MOSUNNY 30 1 29 NW9 30.22F WCI 22 Ft. Lauderdale MOSUNNY 80 70 71 SE12 30.17F Chicago O`Hare CLOUDY 40 34 79 CALM 30.00F Chicago Midway CLOUDY 42 32 67 S6 30.00F Houston Bush CLOUDY 57 52 83 NE6 30.08F Houston Hobby CLOUDY 63 56 78 CALM 30.06F Nashville CLOUDY 46 40 79 SE7 30.11F Atlanta RAIN 44 40 85 SE5 30.19F FOG $$ GAZ044-118-TXZ119-213-NCZ071-DCZ001-MDZ014-506-PAZ021-071-NJZ106- NYZ176-178-MAZ106-OHZ011-021-055-MIZ076-KYZ091-ILZ014-INZ047- MNZ060-ONZ431-172000- ...Gateway Observations for Savannah International... CITY SKY/WX TMP DP RH WIND PRES REMARKS Savannah Arpt CLOUDY 66 42 41 S12 30.21F Atlanta RAIN 44 40 85 SE5 30.19F FOG Charlotte PTSUNNY 53 30 41 SW8 30.20F Dallas DFW CLOUDY 50 45 83 S9 30.04F Houston Bush CLOUDY 57 52 83 NE6 30.08F Wash National CLOUDY 47 33 58 S5 30.20F Wash Dulles CLOUDY 51 28 41 SE6 30.19F Baltimore CLOUDY 48 34 58 E7 30.19F Philadelphia CLOUDY 43 27 53 CALM 30.22F Newark CLOUDY 37 24 59 NE5 30.24F WCI 33 Laguardia CLOUDY 36 23 59 NE6 30.24F WCI 31 J F K CLOUDY 36 24 62 CALM 30.25F Boston MOSUNNY 30 1 29 NW9 30.22F WCI 22 Pittsburg CLOUDY 42 29 59 S3 30.10F Akron CLOUDY 38 29 70 S8 30.08F WCI 32 Cleveland CLOUDY 37 31 78 CALM 30.11F Cincinnati CLOUDY 46 33 60 S7 30.11F Columbus CLOUDY 42 33 71 SW8 30.13R Detroit CLOUDY 35 30 82 E6 30.11F WCI 30 Chicago O`Hare CLOUDY 40 34 79 CALM 30.00F Minneapolis CLOUDY 27 25 92 CALM 30.04F FOG Indianapolis LGT RAIN 42 38 85 SW7 30.09F Toronto Canada CLOUDY 18 5 57 VRB2 30.24S $$

USA.gov is the U.S. government's official web portal to all federal, state and local government web resources and services.